sat.trackr.live / text

‹ back to catalog

STARLINK-3277

NORAD 50182 · 2021-125AC

PAYLOAD ACTIVE UNKNOWN

§ Identity

Operator
Country
US
Launch date
2021-12-18
Launch site
AFWTR
Launch vehicle
Mass (kg)
RCS (m²)

Purposes: comms

External: N2YO · Heavens-Above · Gunter

§ Orbital elements

Epoch: 2026-09-19T21:59:35.008224Z

Period
94.01 min
Inclination
53.1610°
Eccentricity
0.0001274
Mean motion
15.31702871 rev/d
Perigee alt
469.9 km
Apogee alt
471.6 km
Semi-major
6,848.9 km
B*
1.5343e-5
RAAN
81.5320°
Arg perigee
80.6333°
Mean anomaly
279.4812°
Rev number
26,617

§ Raw data

STARLINK-32771 50182U 21125AC  26262.91637741  .00000111  00000+0  15343-4 0  99952 50182  53.1610  81.5320 0001274  80.6333 279.4812 15.31702871266170

JSON: /api/v1/satellites/50182 · /tle

For live sub-satellite position, see the globe view (requires WebGL).

§ Visibility from observer

Set your observer location to see the next 7 days of passes ≥ 10°. The values pass through the URL so the page stays shareable.

No JS? Fill the form by hand. The geolocation button needs JavaScript.